This is the latest recevied weather packets stored in our database for station/object KR4KUV. If no packets are shown the sender has not sent any weather packets the latest 10 day(s).
| Time | Temp. | Humidity | Pressure | Rain* | Wind** | Luminosity | Snow |
|---|---|---|---|---|---|---|---|
| 1787761136 | 28.89° C | 75% | 1020.3 hPa | 0 mm | - | 646 W/m² | - |
| 1787760835 | 28.33° C | 75% | 1020.3 hPa | 0 mm | - | 655 W/m² | - |
| 1787760533 | 28.33° C | 77% | 1020.5 hPa | 0 mm | - | 171 W/m² | - |
| 1787760228 | 28.33° C | 79% | 1020.6 hPa | 0 mm | - | 615 W/m² | - |
| 1787759924 | 27.78° C | 79% | 1020.6 hPa | 0 mm | - | 580 W/m² | - |
| 1787759619 | 27.78° C | 79% | 1020.8 hPa | 0 mm | - | 481 W/m² | - |
| 1787759316 | 28.33° C | 78% | 1020.9 hPa | 0 mm | - | 606 W/m² | - |
| 1787759016 | 27.78° C | 80% | 1020.8 hPa | 0 mm | - | 599 W/m² | - |
| 1787758710 | 27.78° C | 79% | 1020.8 hPa | 0 mm | - | 624 W/m² | - |
| 1787758406 | 27.22° C | 81% | 1020.8 hPa | 0 mm | - | 296 W/m² | - |
| 1787758104 | 27.22° C | 82% | 1020.8 hPa | 0 mm | - | 572 W/m² | - |
| 1787757801 | 26.67° C | 81% | 1021 hPa | 0 mm | - | 448 W/m² | - |
| 1787757495 | 26.67° C | 83% | 1020.8 hPa | 0 mm | - | 517 W/m² | - |
| 1787757190 | 26.67° C | 84% | 1020.9 hPa | 0 mm | - | 120 W/m² | - |
| 1787756888 | 26.67° C | 84% | 1020.8 hPa | 0 mm | - | 213 W/m² | - |
| 1787756585 | 26.11° C | 85% | 1020.9 hPa | 0 mm | - | 170 W/m² | - |
| 1787756283 | 25.56° C | 86% | 1020.8 hPa | 0 mm | - | 108 W/m² | - |
| 1787755978 | 25.56° C | 87% | 1020.7 hPa | 0 mm | - | 115 W/m² | - |
| 1787755677 | 25° C | 87% | 1020.7 hPa | 0 mm | - | 114 W/m² | - |
| 1787755373 | 25° C | 87% | 1020.6 hPa | 0 mm | - | 151 W/m² | - |
| 1787755072 | 25° C | 87% | 1020.8 hPa | 0 mm | - | 152 W/m² | - |
| 1787754767 | 24.44° C | 88% | 1020.9 hPa | 0 mm | - | 147 W/m² | - |
| 1787754464 | 24.44° C | 87% | 1021 hPa | 0 mm | - | 311 W/m² | - |
| 1787754159 | 24.44° C | 87% | 1020.9 hPa | 0 mm | - | 129 W/m² | - |
| 1787753854 | 24.44° C | 88% | 1021.1 hPa | 0 mm | - | 122 W/m² | - |
* Rain latest hour (hover to see other rain measurements)
** Current wind speed in m/s (hover to see current wind gust speed)